CW5841 Leek UK current weather conditions

sailwx.info

Wind from 235

Air temperature 10.6° C
Dewpoint 10.6° C

Last reported at 2019-Oct-14 15:01 UTC.
Time now 2019-Oct-14 15:18 UTC

Location: N 53°04' W 002°03'.
View on Google Maps.

See reports from other nearby stations

  
Tides and Currents Weather Stations Pressure Air Temp Water Temp Dewpoint Dewpoint Depression Visibility Wind Speed Wind Dir Waves Ship Positions
date/time (UTC)wind fromknots sea level pressurealtimeterstation pressurevisibilityair tempwater tempwave heightnotes
2019-Oct-14 15:01 235 10.6
2019-Oct-14 14:06 335 1 gusting 2 11.7
2019-Oct-14 14:01 317 11.7
2019-Oct-14 13:06 144 1 gusting 7 12.2
2019-Oct-14 13:01 170 4 gusting 12 12.2
2019-Oct-14 12:06 154 3 gusting 7 12.2
2019-Oct-14 10:06 039 11.1
2019-Oct-14 10:01 036 11.1
2019-Oct-14 09:06 108 9.4
2019-Oct-14 08:01 168 7.8
2019-Oct-14 07:01 155 1 gusting 17 7.8
2019-Oct-14 06:06 167 5.6
2019-Oct-14 06:01 332 5.6
2019-Oct-14 05:01 172 5.6
2019-Oct-14 04:06 340 5.6
2019-Oct-14 04:01 165 5.6
2019-Oct-14 03:01 165 5.6
2019-Oct-14 02:01 172 6.1
2019-Oct-14 01:06 191 5.6
2019-Oct-14 01:01 191 5.6
2019-Oct-14 00:06 191 6.1
2019-Oct-14 00:01 205 6.1
2019-Oct-13 23:01 331 6.1
2019-Oct-13 22:06 306 6.7
2019-Oct-13 21:06 005 7.2
2019-Oct-13 21:01 330 7.2
2019-Oct-13 20:01 301 0 gusting 4 8.3
2019-Oct-13 19:06 292 0 gusting 4 8.9
2019-Oct-13 19:01 286 0 gusting 10 8.9
2019-Oct-13 18:06 311 0 gusting 7 9.4
2019-Oct-13 18:01 287 3 gusting 26 9.4
2019-Oct-13 17:06 258 1 gusting 10 10.6
2019-Oct-13 17:01 232 2 gusting 15 10.6
2019-Oct-13 16:06 282 3 gusting 13 11.7
2019-Oct-13 16:01 178 2 gusting 15 12.2
2019-Oct-13 15:06 053 2 gusting 6 12.2
2019-Oct-13 15:01 142 0 gusting 7 12.2
2019-Oct-13 14:06 156 12.2
2019-Oct-13 14:01 160 1 gusting 6 12.2
2019-Oct-13 13:01 164 11.1
2019-Oct-13 12:06 148 11.1
2019-Oct-13 12:01 345 11.1
2019-Oct-13 10:06 148 0 gusting 13 10.6
2019-Oct-13 09:06 319 1 gusting 4 10.6
2019-Oct-13 09:01 336 0 gusting 8 10.6
2019-Oct-13 07:06 131 2 gusting 6 10.6
2019-Oct-13 07:01 150 1 gusting 6 10.6
2019-Oct-13 06:06 144 2 gusting 6 10.6
2019-Oct-13 06:01 089 1 gusting 6 10.6
2019-Oct-13 05:06 159 1 gusting 2 10.6
2019-Oct-13 05:01 144 1 gusting 17 10.6
2019-Oct-13 03:01 357 0 gusting 6 10.6
2019-Oct-13 02:01 148 10.6
2019-Oct-13 01:06 156 10.6
2019-Oct-13 01:01 167 1 gusting 2 10.6
2019-Oct-13 00:06 145 10.6
2019-Oct-13 00:01 159 10.6
2019-Oct-12 23:01 071 10.6
2019-Oct-12 22:06 094 10.6
2019-Oct-12 22:01 164 10.6
2019-Oct-12 21:06 157 10.6
2019-Oct-12 20:06 144 0 gusting 2 10.6
2019-Oct-12 20:01 146 0 gusting 5 10.6
2019-Oct-12 19:06 165 11.1
2019-Oct-12 18:06 167 0 gusting 4 11.1
2019-Oct-12 17:06 143 11.7
2019-Oct-12 17:01 173 11.7
2019-Oct-12 16:06 175 12.2
2019-Oct-12 16:01 160 12.2
2019-Oct-12 15:01 280 12.8